Location: Unspecified
(0.0000°N, 0.0000°E)
Time: 19:15:18
(UTC+02:00)

Cosmos 2228 - Visible Passes

Search period start: 24 June 2017 00:00
Search period end: 04 July 2017 00:00
Orbit: 590 x 620 km, 82.5° (Epoch: 23 June)

Date Brightness Start Highest point End Pass type
(mag) Time Alt. Az. Time Alt. Az. Time Alt. Az.
26 Jun 4.8 20:21:28 10° NNW 20:25:25 36° W 20:29:26 10° SSW visible
27 Jun 6.3 06:53:35 10° ESE 06:54:47 11° E 06:55:58 10° ENE visible
27 Jun 5.9 20:35:20 10° NW 20:38:22 19° W 20:41:25 10° SW visible
28 Jun 5.6 07:04:22 10° SE 07:07:43 22° E 07:11:02 10° NE visible
29 Jun 4.3 07:16:31 10° SSE 07:20:39 43° E 07:24:43 10° NNE visible
30 Jun 3.0 07:29:14 10° S 07:33:34 89° WNW 07:37:51 10° N visible
02 Jul 6.0 06:20:01 10° ESE 06:22:07 13° E 06:24:11 10° ENE visible
03 Jul 5.1 06:31:26 10° SSE 06:35:02 26° E 06:38:36 10° NE visible
